Regional Weather Roundup
Issued by NWS

Home | Current Version | Previous Version | Text Only | Print | Product List | Glossary On
Versions: 1 2 3 4 5 6 7 8 9 10 11 12 13 14 15 16 17 18 19 20 21 22 23 24 25 26 27 28 29 30 31 32 33 34 35 36 37 38 39 40 41 42 43 44 45 46 47 48 49 50
747
ASUS43 KLOT 261408
RWRIL

ILLINOIS REGIONAL WEATHER ROUNDUP
NATIONAL WEATHER SERVICE CHICAGO/ROMEOVILLE IL
900 AM CDT THU MAY 26 2016

NOTE: "FAIR" INDICATES FEW OR NO CLOUDS BELOW 12,000 FEET WITH NO
SIGNIFICANT WEATHER AND/OR OBSTRUCTIONS TO VISIBILITY.

* THESE STATIONS ARE NOT UNDER NWS QUALITY CONTROL. THEY ALSO MAY NOT
  REPORT WEATHER SUCH AS PRECIPITATION OR FOG.

ILZ001-002-007-009-015-016-024-261500-
NORTHWEST ILLINOIS

CITY           SKY/WX    TMP DP  RH WIND       PRES   REMARKS
MOLINE         CLOUDY    70  61  73 SE5       29.87F
STERLING*      CLOUDY    68  62  81 CALM      29.89F
SAVANNA*       CLOUDY    68  60  76 W3        29.88S
$$

ILZ003-004-008-010-011-017-018-261500-
NORTH CENTRAL ILLINOIS

CITY           SKY/WX    TMP DP  RH WIND       PRES   REMARKS
ROCKFORD       CLOUDY    66  63  90 SW7       29.92R
FREEPORT*      CLOUDY    64  62  93 S3        29.91S
ROCHELLE*      CLOUDY    69  65  87 SW9       29.90F
DE KALB*       DRIZZLE   69  65  88 SW8       29.90F
$$

ILZ005-006-012>014-019>023-261500-
NORTHEAST ILLINOIS

CITY           SKY/WX    TMP DP  RH WIND       PRES   REMARKS
CHICAGO-OHARE  CLOUDY    72  67  84 SW14G21   29.93R
CHICAGO-MIDWAY CLOUDY    73  66  78 SW12      29.93S
AURORA         CLOUDY    71  64  78 SW9G18    29.92F
LANSING*       CLOUDY    72  66  81 SW12      29.95F
JOLIET*        CLOUDY    73  64  74 SW7       29.94F
WAUKEGAN       PTSUNNY   71  67  87 SW10      29.92R
DUPAGE AIRPORT CLOUDY    72  65  78 SW9       29.92S
KANKAKEE*      CLOUDY   N/A N/A N/A W7        29.97S
WHEELING       CLOUDY    73  67  81 SW10      29.94R
MORRIS*        LGT RAIN  68  62  79 SW3       29.91F
ROMEOVILLE*    CLOUDY    72  64  74 W13G18    29.94F
NORTHERLY ISL    N/A     73  65  75 S9          N/A
NORTHERLY ISL    N/A     73  65  75 S9          N/A
$$

LMZ740>746-261500-
SOUTHERN LAKE MICHIGAN

STATION/POSITION SKY/WX   TEMP    WIND        PRES    VSBY  WAVE
                          AIR SEA DIR/SP/G                  HT/PER
                          (F)     (DEG/KT/KT) (MB)    (MI)  (FT/S)
SOUTHERN BUOY              54 49  170/ 14/ 14 1012.9R         1/ 3
WILMETTE HARBOR            62 56  200/  6/  8   N/A           1
HARRISON CRIB              70     200/ 13/ 14   N/A
BURNHAM HARBOR             72     240/  6/ 10   N/A
CALUMET HARBOR             71     200/ 10/ 12 1013.1S
BURNS HARBOR               71     190/ 11/ 19 1014.2F
MICHIGAN CITY              70     160/ 11/ 13   N/A
MICHIGAN CITY 6N           65 57  200/  6/  8   N/A           1
ST. JOSEPH                 63 59  200/  6/  8   N/A           1
$$

ILZ025>027-034>036-040-047-049-050-058-095>099-261500-
WEST-CENTRAL ILLINOIS

CITY           SKY/WX    TMP DP  RH WIND       PRES   REMARKS
QUINCY         CLOUDY    69  65  86 SE7       29.94R
GALESBURG*     CLOUDY    68  62  81 S7        29.92R
MACOMB*        CLOUDY    68  66  93 CALM      29.95R
JACKSONVILLE*  LGT RAIN  67  63  87 E12       29.94F
PITTSFIELD*    CLOUDY    67  66  94 SE9       29.96R
$$

ILZ028>032-037-038-041>044-048-051>054-059>061-261500-
CENTRAL ILLINOIS

CITY           SKY/WX    TMP DP  RH WIND       PRES   REMARKS
PONTIAC        TSTM      67  65  91 SE6       29.95F
BLOOMINGTON    LGT RAIN  65  65 100 SE15      29.96F FOG
DECATUR        TSTM      65  62  90 SW8       30.02S
PEORIA         CLOUDY    67  63  87 SW5       29.92R
LACON*         CLOUDY    66  62  89 E7        29.89S
LINCOLN*       CLOUDY    66  64  91 CALM      29.95F
SPRINGFIELD    TSTM      66  64  93 SE13      30.00S
TAYLORVILLE    TSTM      64  64  97 SE7       30.07R
$$

ILZ033-039-045-046-055>057-062-063-261500-
EAST-CENTRAL ILLINOIS

CITY           SKY/WX    TMP DP  RH WIND       PRES   REMARKS
CHAMPAIGN      LGT RAIN  63  61  93 NW10      30.00F
RANTOUL*       RAIN      66  64  94 NW12      29.99R
MATTOON        TSTM      65  62  90 N15G29    30.05R VSB 1
PARIS*         PTSUNNY   74  67  79 S8        30.00F
$$

ILZ079-100>102-261500-
SOUTHWEST ILLINOIS

CITY           SKY/WX    TMP DP  RH WIND       PRES   REMARKS
ALTON          RAIN      66  64  94 E6        29.98F
BELLEVILLE     LGT RAIN  66  66 100 VRB2      30.01F
CAHOKIA*       LGT RAIN  67  63  87 SE7       30.00S
SPARTA*        TSTM      66  63  90 N7        30.06R
$$

ILZ064>066-069>071-074>076-080>082-084>086-088>090-092>094-261500-
SOUTH-CENTRAL ILLINOIS

CITY           SKY/WX    TMP DP  RH WIND       PRES   REMARKS
CARBONDALE     PTSUNNY   74  66  76 SW13      30.03R
CAIRO*         CLOUDY    73  68  86 SW7       30.05R
EFFINGHAM*     CLOUDY    72  69  90 W26G36    30.09R
MARION         PTSUNNY   75  68  78 S15       30.03S
MT. VERNON     PTSUNNY   73  64  73 W18       30.04R
CENTRALIA*     TSTM      68  65  91 NW8G18    30.06R
SALEM*         TSTM      69  66  89 W10G31    30.08R
METROPOLIS*    CLOUDY    75  71  85 SW7       30.06R
$$

ILZ067-068-072-073-078-083-087-091-261500-
SOUTHEAST ILLINOIS

CITY           SKY/WX    TMP DP  RH WIND       PRES   REMARKS
LAWRENCEVILLE  MOSUNNY   76  66  71 S15       30.02S
FLORA*         MOSUNNY   75  67  76 SW12G17   30.02R
FAIRFIELD*     PTSUNNY   75  67  75 S7        30.01S
HARRISBURG*    MOSUNNY   75  69  79 SW12      30.04R
ROBINSON*      PTSUNNY   73  66  80 S9        30.02R
CARMI*         MOSUNNY   75  68  78 S10       30.02S
$$

ABBREVIATIONS USED IN REMARKS
   TC - TEMPERATURE IN CELSIUS
  WCI - WIND CHILL INDEX
   HX - HEAT INDEX
  VSB - VISIBILITY
$$





USA.gov is the U.S. government's official web portal to all federal, state and local government web resources and services.